Change the Weather History Date:

Saturday, February 23, 2013

  Actual Average Record
Temperature  
Mean Temperature 47 °F 48 °F  
Max Temperature 52 °F 59 °F 77 °F (2012)
Min Temperature 42 °F 37 °F 26 °F (2009)
Degree Days  
Heating Degree Days 18 17  
Month to date heating degree days 443  
Since 1 July heating degree days 2259  
Moisture  
Dew Point 44 °F    
Average Humidity 93    
Maximum Humidity 100    
Minimum Humidity 83    
Precipitation  
Precipitation 1.01 in 0.18 in 1.61 in (1962)
Month to date precipitation 3.91  
Year to date precipitation 8.18  
Sea Level Pressure  
Sea Level Pressure 29.94 in    
Wind  
Wind Speed 5 mph (NNE)    
Max Wind Speed 12 mph    
Max Gust Speed -    
Visibility 6 miles    
Events Rain    
T = Trace of Precipitation, MM = Missing Value Source: NWS Daily Summary

Daily Weather History Graph

Daily Weather History Graph

Search for Another Location

Airport or City:

Trip Planner

Search our weather history database for the weather conditions in past years. The results will help you decide how hot, cold, wet, or windy it might be!

Date:

Astronomy

Feb. 23, 2013 Rise Set
Actual Time 7:13 AM EST 6:29 PM EST
Civil Twilight 6:48 AM EST 6:54 PM EST
Nautical Twilight 6:19 AM EST 7:23 PM EST
Astronomical Twilight 5:50 AM EST 7:52 PM EST
Moon 4:42 PM EST (2/23) 5:31 AM EST (2/23)
Length of Visible Light 12h 06m
Length of Day
11h 16m
Waxing Gibbous, 95% of the Moon is Illuminated
Feb 23
Waxing Gibbous
Feb 25
Full
Mar 4
Last Quarter
Mar 11
New
Mar 19
First Quarter

Hourly Weather History & Observations

Time (EST) Temp. Windchill Dew Point Humidity Pressure Visibility Wind Dir Wind Speed Gust Speed Precip Events Conditions
12:53 AM 42.1 °F 37.7 °F 41.0 °F 96% 30.01 in 3.0 mi ENE 6.9 mph - 0.11 in Rain Rain
1:45 AM 42.8 °F 37.0 °F 41.0 °F 93% 29.98 in 4.0 mi NE 10.4 mph - 0.10 in Rain Light Rain
1:53 AM 42.1 °F 35.7 °F 41.0 °F 96% 29.98 in 6.0 mi NE 11.5 mph - 0.11 in Rain Light Rain
2:32 AM 42.8 °F 38.0 °F 41.0 °F 93% 29.98 in 2.5 mi NE 8.1 mph - 0.09 in Rain Rain
2:39 AM 42.8 °F 38.0 °F 41.0 °F 93% 29.98 in 4.0 mi North 8.1 mph - 0.11 in Rain Rain
2:53 AM 42.1 °F 37.1 °F 41.0 °F 96% 29.96 in 3.0 mi ENE 8.1 mph - 0.19 in Rain Heavy Rain
3:00 AM 42.8 °F 37.5 °F 41.0 °F 93% 29.95 in 2.0 mi ENE 9.2 mph - 0.04 in Rain Heavy Rain
3:25 AM 42.8 °F 38.6 °F 41.0 °F 93% 29.94 in 3.0 mi North 6.9 mph - 0.14 in Rain Rain
3:40 AM 42.8 °F 39.3 °F 41.0 °F 93% 29.97 in 2.0 mi North 5.8 mph - 0.23 in Rain Heavy Rain
3:53 AM 42.1 °F 40.2 °F 41.0 °F 96% 29.99 in 1.5 mi North 3.5 mph - 0.35 in Rain Heavy Rain
4:05 AM 42.8 °F 36.6 °F 41.0 °F 93% 29.94 in 3.0 mi ENE 11.5 mph - 0.06 in Rain Rain
4:53 AM 42.1 °F 39.2 °F 41.0 °F 96% 29.93 in 8.0 mi NE 4.6 mph - 0.22 in Rain Light Rain
5:53 AM 43.0 °F - 41.0 °F 93% 29.94 in 10.0 mi Calm Calm - 0.00 in   Overcast
6:06 AM 42.8 °F - 41.0 °F 93% 29.95 in 10.0 mi Calm Calm - 0.00 in Rain Light Rain
6:37 AM 42.8 °F 40.1 °F 42.8 °F 100% 29.95 in 1.8 mi North 4.6 mph - 0.01 in Rain Light Rain
6:53 AM 43.0 °F 39.5 °F 42.1 °F 97% 29.96 in 2.0 mi North 5.8 mph - 0.02 in Rain Light Rain
7:24 AM 42.8 °F - 42.8 °F 100% 29.96 in 1.8 mi Calm Calm - 0.01 in Rain Light Rain
7:53 AM 43.0 °F 41.3 °F 42.1 °F 97% 29.95 in 1.8 mi NE 3.5 mph - 0.01 in   Overcast
7:58 AM 42.8 °F 41.1 °F 42.8 °F 100% 29.94 in 2.0 mi NE 3.5 mph - N/A   Overcast
8:11 AM 42.8 °F 40.1 °F 42.8 °F 100% 29.94 in 1.8 mi NNE 4.6 mph - N/A   Overcast
8:46 AM 44.6 °F 42.2 °F 42.8 °F 93% 29.96 in 1.8 mi NNE 4.6 mph - N/A   Overcast
8:53 AM 44.1 °F - 43.0 °F 96% 29.97 in 1.8 mi Calm Calm - N/A   Overcast
9:18 AM 44.6 °F - 42.8 °F 93% 29.96 in 5.0 mi Calm Calm - N/A   Overcast
9:26 AM 44.6 °F 43.1 °F 42.8 °F 93% 29.96 in 2.5 mi NE 3.5 mph - N/A   Overcast
9:48 AM 44.6 °F 42.2 °F 42.8 °F 93% 29.95 in 3.0 mi NNE 4.6 mph - N/A   Overcast
9:53 AM 45.0 °F 43.5 °F 43.0 °F 93% 29.95 in 3.0 mi NE 3.5 mph - N/A   Overcast
10:53 AM 46.0 °F - 44.1 °F 93% 29.96 in 10.0 mi Calm Calm - N/A   Overcast
11:53 AM 46.9 °F - 45.0 °F 93% 29.94 in 10.0 mi North 3.5 mph - N/A   Overcast
12:53 PM 48.0 °F - 45.0 °F 89% 29.94 in 9.0 mi Calm Calm - N/A   Overcast
1:53 PM 48.9 °F - 46.0 °F 90% 29.92 in 10.0 mi Calm Calm - N/A   Overcast
2:53 PM 50.0 °F - 46.9 °F 89% 29.92 in 7.0 mi Calm Calm - N/A   Overcast
3:44 PM 50.0 °F - 46.4 °F 87% 29.90 in 10.0 mi Calm Calm - N/A   Overcast
3:53 PM 51.1 °F - 46.9 °F 86% 29.90 in 10.0 mi Calm Calm - N/A   Overcast
4:53 PM 52.0 °F - 46.9 °F 83% 29.87 in 10.0 mi Calm Calm - N/A   Overcast
5:53 PM 52.0 °F - 48.0 °F 86% 29.86 in 10.0 mi Calm Calm - N/A   Overcast
6:53 PM 51.1 °F - 48.0 °F 89% 29.88 in 10.0 mi SSE 3.5 mph - N/A   Overcast
7:53 PM 50.0 °F - 48.0 °F 93% 29.88 in 10.0 mi Calm Calm - N/A   Overcast
8:53 PM 51.1 °F - 48.0 °F 89% 29.90 in 10.0 mi Calm Calm - N/A   Overcast
10:53 PM 50.0 °F - 48.0 °F 93% 29.93 in 10.0 mi Calm Calm - N/A   Mostly Cloudy
11:53 PM 50.0 °F - 48.0 °F 93% 29.92 in 9.0 mi West 3.5 mph - N/A   Mostly Cloudy
11:55 PM 50.0 °F - 48.2 °F 94% 29.92 in 9.0 mi West 3.5 mph - N/A   Mostly Cloudy